Date String (YYYY-MM-DD hh:mm:ss) UTC,Instrument flags,absolute air pressure of the measurement (hPa),sample flow rate (lpm),inlet stack bypass flow (lpm),air temperature of the measurement (°C),ambient temperature measured by the external sensor (°C),aerosol sample conditioner tube jacket temperature (°C),OPC LED temperature (°C),internal box temperature (°C),relative humidity of the measurement (%),span deviation,mass concentration of particles derived from Lorenz-Mie calculation of OPC scattering (μg/m³),mass concentration of particles derived from Lorenz-Mie calculation of OPC scattering (μg/m³),mass concentration of particles derived from Lorenz-Mie calculation of OPC scattering (μg/m³)
DateTimeUTC,F1_M11,P_M11,Q1_M11,Q2_M11,T1_M11,T2_M11,T3_M11,T4_M11,T5_M11,U1_M11,ZSPAN_M11,X2_M11,X0_M11,X1_M11
2024-01-10 12:00:00,SystemResetWarning,0813.1,4.99,000.00,018.9,018.7,000.0,027.2,020.8,6.7,0000.0,0000.60,0002.70,0000.20
2024-01-10 12:01:00,SystemResetWarning,0813.0,4.99,000.00,019.0,018.8,000.0,027.2,020.5,6.7,0000.0,0000.58,0002.65,0000.20
2024-01-10 12:02:00,SystemResetWarning,0813.0,5.00,000.00,018.9,018.6,000.0,027.2,020.2,6.6,0000.0,0000.47,0002.40,0000.19
2024-01-10 12:03:00,SystemResetWarning,0813.0,5.01,000.00,018.9,018.4,000.0,027.2,020.0,6.7,0000.0,0000.48,0002.43,0000.19
2024-01-10 12:04:00,SystemResetWarning,0812.9,5.00,000.00,018.8,018.1,000.0,027.2,020.0,6.7,0000.0,0000.49,0002.42,0000.19
2024-01-10 12:05:00,SystemResetWarning,0812.9,4.99,000.00,018.8,017.9,000.0,027.2,020.0,6.7,0000.0,0000.54,0002.44,0000.19
2024-01-10 12:06:00,SystemResetWarning,0813.0,4.99,000.00,018.8,017.7,000.0,027.2,020.0,6.8,0000.0,0000.53,0002.05,0000.19
2024-01-10 12:07:00,SystemResetWarning,0812.9,5.00,000.00,018.8,017.5,000.0,027.2,020.0,6.9,0000.0,0000.52,0001.96,0000.20
2024-01-10 12:08:00,SystemResetWarning,0813.0,5.01,000.00,018.8,017.4,000.0,027.2,020.0,6.9,0000.0,0000.53,0002.18,0000.20
2024-01-10 12:09:00,SystemResetWarning,0813.0,5.01,000.00,018.8,017.2,000.0,027.2,020.0,6.9,0000.0,0000.51,0002.19,0000.19
2024-01-10 12:10:00,SystemResetWarning,0813.0,5.00,000.00,018.7,017.1,000.0,027.2,020.0,7.0,0000.0,0000.52,0002.20,0000.19
2024-01-10 12:11:00,SystemResetWarning,0813.0,5.00,000.00,018.7,017.0,000.0,027.2,020.0,7.0,0000.0,0000.49,0002.12,0000.19
2024-01-10 12:12:00,SystemResetWarning,0813.0,5.00,000.00,018.7,017.0,000.0,027.3,020.0,7.0,0000.0,0000.46,0002.07,0000.19
2024-01-10 12:13:00,SystemResetWarning,0813.0,5.00,000.00,018.8,017.5,000.0,027.2,020.4,7.0,0000.0,0000.47,0002.08,0000.19
2024-01-10 12:14:00,SystemResetWarning,0813.1,5.01,000.00,018.9,018.5,000.0,027.2,020.8,7.0,0000.0,0000.44,0002.01,0000.19
2024-01-10 12:15:00,SystemResetWarning,0813.1,4.98,000.00,019.0,018.8,000.0,027.2,020.6,7.0,0000.0,0000.39,0001.91,0000.19
2024-01-10 12:16:00,SystemResetWarning,0813.1,5.00,000.00,019.0,018.7,000.0,027.2,020.3,7.0,0000.0,0000.36,0001.76,0000.19
2024-01-10 12:17:00,SystemResetWarning,0813.1,5.00,000.00,018.9,018.4,000.0,027.2,020.0,7.1,0000.0,0000.33,0000.91,0000.18
2024-01-10 12:18:00,SystemResetWarning,0813.2,5.01,000.00,018.9,018.2,000.0,027.2,020.0,7.1,0000.0,0000.34,0000.91,0000.17
2024-01-10 12:19:00,SystemResetWarning,0813.2,5.01,000.00,018.8,017.9,000.0,027.2,020.0,7.1,0000.0,0000.34,0000.82,0000.17
2024-01-10 12:20:00,SystemResetWarning,0813.1,5.00,000.00,018.8,017.7,000.0,027.2,020.0,7.2,0000.0,0000.35,0000.81,0000.17
2024-01-10 12:21:00,SystemResetWarning,0813.2,5.00,000.00,018.8,017.5,000.0,027.3,020.0,7.2,0000.0,0000.35,0001.34,0000.17
2024-01-10 12:22:00,SystemResetWarning,0813.2,5.00,000.00,018.8,017.4,000.0,027.3,020.0,7.3,0000.0,0000.36,0002.12,0000.17
2024-01-10 12:23:00,SystemResetWarning,0813.2,4.99,000.00,018.7,017.2,000.0,027.3,020.0,7.3,0000.0,0000.35,0002.11,0000.17
2024-01-10 12:24:00,SystemResetWarning,0813.1,4.99,000.00,018.7,017.1,000.0,027.3,020.0,7.4,0000.0,0000.34,0002.16,0000.16
2024-01-10 12:25:00,SystemResetWarning,0813.1,5.00,000.00,018.7,017.1,000.0,027.3,020.0,7.3,0000.0,0000.34,0002.18,0000.16
2024-01-10 12:26:00,SystemResetWarning,0813.1,5.01,000.00,018.7,017.0,000.0,027.3,020.0,7.3,0000.0,0000.36,0002.21,0000.16
2024-01-10 12:27:00,SystemResetWarning,0813.1,5.01,000.00,018.7,017.0,000.0,027.3,020.0,7.3,0000.0,0000.38,0002.24,0000.15
2024-01-10 12:28:00,SystemResetWarning,0813.2,5.00,000.00,018.7,017.2,000.0,027.3,020.2,7.3,0000.0,0000.40,0002.21,0000.16
2024-01-10 12:29:00,SystemResetWarning,0813.2,5.00,000.00,018.8,018.1,000.0,027.2,020.6,7.4,0000.0,0000.40,0002.20,0000.15
2024-01-10 12:30:00,SystemResetWarning,0813.2,4.99,000.00,018.9,018.7,000.0,027.2,020.7,7.3,0000.0,0000.36,0002.07,0000.15
2024-01-10 12:31:00,SystemResetWarning,0813.1,4.99,000.00,019.0,018.7,000.0,027.2,020.4,7.3,0000.0,0000.34,0001.95,0000.14
2024-01-10 12:32:00,SystemResetWarning,0813.0,5.00,000.00,018.9,018.5,000.0,027.2,020.1,7.2,0000.0,0000.32,0001.25,0000.14
2024-01-10 12:33:00,SystemResetWarning,0813.1,5.01,000.00,018.9,018.2,000.0,027.2,020.0,7.2,0000.0,0000.29,0000.54,0000.14
2024-01-10 12:34:00,SystemResetWarning,0813.0,5.01,000.00,018.8,018.0,000.0,027.2,020.0,7.3,0000.0,0000.29,0000.57,0000.15
2024-01-10 12:35:00,SystemResetWarning,0813.0,5.00,000.00,018.8,017.8,000.0,027.2,020.0,7.4,0000.0,0000.29,0000.54,0000.15
2024-01-10 12:36:00,SystemResetWarning,0813.0,4.99,000.00,018.8,017.6,000.0,027.2,020.0,7.4,0000.0,0000.28,0000.54,0000.14
2024-01-10 12:37:00,SystemResetWarning,0813.0,5.00,000.00,018.8,017.5,000.0,027.2,020.0,7.4,0000.0,0000.29,0000.56,0000.15
2024-01-10 12:38:00,SystemResetWarning,0813.0,5.01,000.00,018.8,017.3,000.0,027.2,020.0,7.4,0000.0,0000.29,0000.65,0000.16
2024-01-10 12:39:00,SystemResetWarning,0813.0,5.00,000.00,018.8,017.2,000.0,027.2,020.0,7.5,0000.0,0000.27,0000.66,0000.16
2024-01-10 12:40:00,SystemResetWarning,0813.0,5.01,000.00,018.7,017.1,000.0,027.3,020.0,7.5,0000.0,0000.29,0000.77,0000.17
2024-01-10 12:41:00,SystemResetWarning,0813.0,5.00,000.00,018.7,017.0,000.0,027.3,020.0,7.5,0000.0,0000.31,0000.82,0000.17
2024-01-10 12:42:00,SystemResetWarning,0813.0,5.01,000.00,018.7,017.3,000.0,027.2,020.2,7.5,0000.0,0000.31,0000.83,0000.17
2024-01-10 12:43:00,SystemResetWarning,0813.1,5.00,000.00,018.8,018.1,000.0,027.2,020.6,7.5,0000.0,0000.33,0000.88,0000.17
2024-01-10 12:44:00,SystemResetWarning,0813.0,5.00,000.00,019.0,018.7,000.0,027.2,020.7,7.5,0000.0,0000.36,0000.96,0000.17
2024-01-10 12:45:00,SystemResetWarning,0813.0,5.00,000.00,018.9,018.6,000.0,027.2,020.3,7.5,0000.0,0000.38,0001.00,0000.18
2024-01-10 12:46:00,SystemResetWarning,0813.0,4.99,000.00,018.9,018.4,000.0,027.2,020.1,7.5,0000.0,0000.40,0000.99,0000.18
2024-01-10 12:47:00,SystemResetWarning,0813.0,5.00,000.00,018.8,018.2,000.0,027.2,020.0,7.4,0000.0,0000.40,0000.99,0000.17
2024-01-10 12:48:00,SystemResetWarning,0813.0,5.00,000.00,018.8,017.9,000.0,027.2,020.0,7.5,0000.0,0000.37,0000.93,0000.17
2024-01-10 12:49:00,SystemResetWarning,0813.0,5.00,000.00,018.8,017.7,000.0,027.2,020.0,7.5,0000.0,0000.36,0000.83,0000.17
2024-01-10 12:50:00,SystemResetWarning,0813.0,5.00,000.00,018.8,017.5,000.0,027.2,020.0,7.5,0000.0,0000.35,0000.81,0000.16
2024-01-10 12:51:00,SystemResetWarning,0813.0,5.00,000.00,018.7,017.3,000.0,027.3,020.0,7.5,0000.0,0000.33,0000.88,0000.16
2024-01-10 12:52:00,SystemResetWarning,0812.9,5.01,000.00,018.7,017.2,000.0,027.3,020.0,7.5,0000.0,0000.35,0000.89,0000.16
2024-01-10 12:53:00,SystemResetWarning,0813.0,5.01,000.00,018.7,017.1,000.0,027.3,020.0,7.5,0000.0,0000.35,0000.88,0000.16
2024-01-10 12:54:00,SystemResetWarning,0813.0,5.00,000.00,018.7,017.0,000.0,027.3,020.0,7.6,0000.0,0000.35,0000.89,0000.16
2024-01-10 12:55:00,SystemResetWarning,0813.0,5.01,000.00,018.7,017.1,000.0,027.3,020.1,7.6,0000.0,0000.34,0000.84,0000.16
2024-01-10 12:56:00,SystemResetWarning,0812.9,5.00,000.00,018.8,017.9,000.0,027.2,020.5,7.5,0000.0,0000.34,0000.83,0000.16
2024-01-10 12:57:00,SystemResetWarning,0812.8,4.99,000.00,018.9,018.7,000.0,027.2,020.7,7.5,0000.0,0000.33,0000.78,0000.16
2024-01-10 12:58:00,SystemResetWarning,0812.8,4.99,000.00,019.0,018.7,000.0,027.2,020.4,7.4,0000.0,0000.36,0000.88,0000.17
2024-01-10 12:59:00,SystemResetWarning,0812.7,5.01,000.00,018.9,018.6,000.0,027.2,020.0,7.5,0000.0,0000.37,0000.91,0000.17
